Location: Cassagne
(43.1218°N, 0.9901°E)
Time: 19:54:44
(UTC+00:00)

Cosmos 1484 Rocket - Pass Details

Date: 17 February 2020
Orbit: 507 x 559 km, 97.4° (Epoch: 30 March)

Event Time Altitude Azimuth Distance (km) Brightness Sun altitude
Rises 05:11:00 0° 8° (N) 2,712 6.5 -19.0°
Reaches altitude 10° 05:13:08 10° 4° (N) 1,823 5.5 -18.6°
Maximum altitude 05:17:00 57° 286° (WNW) 652 2.8 -17.9°
Enters shadow 05:20:16 14° 209° (SSW) 1,577 4.9 -17.3°
